Time,TemperatureF,DewpointF,PressureIn,WindDirection,WindDirectionDegrees,WindSpeedMPH,WindSpeedGustMPH,Humidity,HourlyPrecipIn,Conditions,Clouds,dailyrainin,SoftwareType,DateUTC
2013-09-17 00:02:00,50.8,41.4,30.22,North,0,0.0,0.0,70,0.00,,,0.00,WUHU216HW,2013-09-17 05:02:00,
2013-09-17 00:07:00,50.8,41.4,30.21,North,0,0.0,0.0,70,0.00,,,0.00,WUHU216HW,2013-09-17 05:07:00,
2013-09-17 00:12:00,50.8,41.8,30.21,North,0,0.0,0.0,71,0.00,,,0.00,WUHU216HW,2013-09-17 05:12:00,
2013-09-17 00:17:00,50.8,41.8,30.21,North,0,0.0,0.0,71,0.00,,,0.00,WUHU216HW,2013-09-17 05:17:00,
2013-09-17 00:22:00,50.8,41.8,30.21,North,0,0.0,0.0,71,0.00,,,0.00,WUHU216HW,2013-09-17 05:22:00,
2013-09-17 00:27:00,50.8,42.1,30.21,North,0,0.0,0.0,72,0.00,,,0.00,WUHU216HW,2013-09-17 05:27:00,
2013-09-17 00:32:00,50.8,41.8,30.21,North,0,0.0,0.0,71,0.00,,,0.00,WUHU216HW,2013-09-17 05:32:00,
2013-09-17 00:37:00,50.6,42.0,30.21,North,0,0.0,0.0,72,0.00,,,0.00,WUHU216HW,2013-09-17 05:37:00,
2013-09-17 00:42:00,50.6,42.0,30.21,North,0,0.0,0.0,72,0.00,,,0.00,WUHU216HW,2013-09-17 05:42:00,
2013-09-17 00:47:00,50.8,42.1,30.21,North,0,0.0,0.0,72,0.00,,,0.00,WUHU216HW,2013-09-17 05:47:00,
2013-09-17 00:52:00,50.8,42.1,30.21,North,0,0.0,0.0,72,0.00,,,0.00,WUHU216HW,2013-09-17 05:52:00,
2013-09-17 00:57:00,50.8,42.1,30.21,North,0,0.0,0.0,72,0.00,,,0.00,WUHU216HW,2013-09-17 05:57:00,
2013-09-17 01:02:00,50.9,42.3,30.21,North,0,0.0,0.0,72,0.00,,,0.00,WUHU216HW,2013-09-17 06:02:00,
2013-09-17 01:07:00,50.9,42.3,30.21,North,0,0.0,0.0,72,0.00,,,0.00,WUHU216HW,2013-09-17 06:07:00,
2013-09-17 01:12:00,50.9,42.3,30.21,North,0,0.0,0.0,72,0.00,,,0.00,WUHU216HW,2013-09-17 06:12:00,
2013-09-17 01:17:00,50.9,42.3,30.21,North,0,0.0,0.0,72,0.00,,,0.00,WUHU216HW,2013-09-17 06:17:00,
2013-09-17 01:22:00,50.9,42.3,30.21,North,0,0.0,0.0,72,0.00,,,0.00,WUHU216HW,2013-09-17 06:22:00,
2013-09-17 01:27:00,50.9,42.3,30.21,North,0,0.0,0.0,72,0.00,,,0.00,WUHU216HW,2013-09-17 06:27:00,
2013-09-17 01:32:00,50.8,42.1,30.21,North,0,0.0,0.0,72,0.00,,,0.00,WUHU216HW,2013-09-17 06:32:00,
2013-09-17 01:37:00,50.8,42.1,30.21,North,0,0.0,0.0,72,0.00,,,0.00,WUHU216HW,2013-09-17 06:37:00,
2013-09-17 01:42:00,50.6,42.0,30.21,North,0,0.0,0.0,72,0.00,,,0.00,WUHU216HW,2013-09-17 06:42:00,
2013-09-17 01:47:00,50.4,41.8,30.21,North,0,0.0,0.0,72,0.00,,,0.00,WUHU216HW,2013-09-17 06:47:00,
2013-09-17 01:52:00,50.2,41.9,30.21,North,0,0.0,0.0,73,0.00,,,0.00,WUHU216HW,2013-09-17 06:52:00,
2013-09-17 01:57:00,50.0,41.7,30.21,North,0,0.0,0.0,73,0.00,,,0.00,WUHU216HW,2013-09-17 06:57:00,
2013-09-17 02:02:00,50.0,41.7,30.21,North,0,0.0,0.0,73,0.00,,,0.00,WUHU216HW,2013-09-17 07:02:00,
2013-09-17 02:07:00,49.9,41.9,30.21,North,0,0.0,0.0,74,0.00,,,0.00,WUHU216HW,2013-09-17 07:07:00,
2013-09-17 02:12:00,49.7,41.7,30.21,North,0,0.0,0.0,74,0.00,,,0.00,WUHU216HW,2013-09-17 07:12:00,
2013-09-17 02:17:00,49.7,41.7,30.21,North,0,0.0,0.0,74,0.00,,,0.00,WUHU216HW,2013-09-17 07:17:00,
2013-09-17 02:22:00,49.5,41.9,30.21,North,0,0.0,0.0,75,0.00,,,0.00,WUHU216HW,2013-09-17 07:22:00,
2013-09-17 02:27:00,49.5,41.9,30.21,North,0,0.0,0.0,75,0.00,,,0.00,WUHU216HW,2013-09-17 07:27:00,
2013-09-17 02:32:00,49.3,41.7,30.21,North,0,0.0,0.0,75,0.00,,,0.00,WUHU216HW,2013-09-17 07:32:00,
2013-09-17 02:37:00,49.3,41.7,30.20,North,0,0.0,0.0,75,0.00,,,0.00,WUHU216HW,2013-09-17 07:37:00,
2013-09-17 02:42:00,49.3,42.4,30.20,North,0,0.0,0.0,77,0.00,,,0.00,WUHU216HW,2013-09-17 07:42:00,
2013-09-17 02:47:00,49.3,42.4,30.20,North,0,0.0,0.0,77,0.00,,,0.00,WUHU216HW,2013-09-17 07:47:00,
2013-09-17 02:52:00,49.3,42.4,30.20,North,0,0.0,0.0,77,0.00,,,0.00,WUHU216HW,2013-09-17 07:52:00,
2013-09-17 02:57:00,49.3,42.4,30.20,North,0,0.0,0.0,77,0.00,,,0.00,WUHU216HW,2013-09-17 07:57:00,
2013-09-17 03:02:00,49.3,42.4,30.20,North,0,0.0,0.0,77,0.00,,,0.00,WUHU216HW,2013-09-17 08:02:00,
2013-09-17 03:07:00,49.1,42.2,30.20,North,0,0.0,0.0,77,0.00,,,0.00,WUHU216HW,2013-09-17 08:07:00,
2013-09-17 03:12:00,49.0,42.0,30.20,North,0,0.0,0.0,77,0.00,,,0.00,WUHU216HW,2013-09-17 08:12:00,
2013-09-17 03:17:00,49.0,42.3,30.20,North,0,0.0,0.0,78,0.00,,,0.00,WUHU216HW,2013-09-17 08:17:00,
2013-09-17 03:22:00,49.0,42.7,30.20,North,0,0.0,0.0,79,0.00,,,0.00,WUHU216HW,2013-09-17 08:22:00,
2013-09-17 03:27:00,48.8,42.5,30.20,North,0,0.0,0.0,79,0.00,,,0.00,WUHU216HW,2013-09-17 08:27:00,
2013-09-17 03:32:00,48.8,42.8,30.20,North,0,0.0,0.0,80,0.00,,,0.00,WUHU216HW,2013-09-17 08:32:00,
2013-09-17 03:37:00,48.6,42.7,30.20,North,0,0.0,0.0,80,0.00,,,0.00,WUHU216HW,2013-09-17 08:37:00,
2013-09-17 03:42:00,48.6,43.0,30.20,North,0,0.0,0.0,81,0.00,,,0.00,WUHU216HW,2013-09-17 08:42:00,
2013-09-17 03:47:00,48.6,42.7,30.20,North,0,0.0,0.0,80,0.00,,,0.00,WUHU216HW,2013-09-17 08:47:00,
2013-09-17 03:52:00,48.4,42.9,30.20,North,0,0.0,0.0,81,0.00,,,0.00,WUHU216HW,2013-09-17 08:52:00,
2013-09-17 03:57:00,48.4,42.9,30.20,North,0,0.0,0.0,81,0.00,,,0.00,WUHU216HW,2013-09-17 08:57:00,
2013-09-17 04:02:00,48.2,42.7,30.19,North,0,0.0,0.0,81,0.00,,,0.00,WUHU216HW,2013-09-17 09:02:00,
2013-09-17 04:07:00,48.2,42.7,30.19,North,0,0.0,0.0,81,0.00,,,0.00,WUHU216HW,2013-09-17 09:07:00,
2013-09-17 04:12:00,48.2,42.7,30.19,North,0,0.0,0.0,81,0.00,,,0.00,WUHU216HW,2013-09-17 09:12:00,
2013-09-17 04:17:00,48.2,42.7,30.19,North,0,0.0,0.0,81,0.00,,,0.00,WUHU216HW,2013-09-17 09:17:00,
2013-09-17 04:22:00,48.2,42.7,30.19,North,0,0.0,0.0,81,0.00,,,0.00,WUHU216HW,2013-09-17 09:22:00,
2013-09-17 04:27:00,48.2,42.9,30.19,North,0,0.0,0.0,82,0.00,,,0.00,WUHU216HW,2013-09-17 09:27:00,
2013-09-17 04:32:00,48.2,42.9,30.19,North,0,0.0,0.0,82,0.00,,,0.00,WUHU216HW,2013-09-17 09:32:00,
2013-09-17 04:37:00,48.1,43.1,30.19,North,0,0.0,0.0,83,0.00,,,0.00,WUHU216HW,2013-09-17 09:37:00,
2013-09-17 04:42:00,48.1,42.8,30.19,North,0,0.0,0.0,82,0.00,,,0.00,WUHU216HW,2013-09-17 09:42:00,
2013-09-17 04:47:00,48.1,42.8,30.19,North,0,0.0,0.0,82,0.00,,,0.00,WUHU216HW,2013-09-17 09:47:00,
2013-09-17 04:52:00,48.2,42.9,30.19,North,0,0.0,0.0,82,0.00,,,0.00,WUHU216HW,2013-09-17 09:52:00,
2013-09-17 04:57:00,48.4,43.5,30.19,North,0,0.0,0.0,83,0.00,,,0.00,WUHU216HW,2013-09-17 09:57:00,
2013-09-17 05:02:00,48.6,43.7,30.18,North,0,0.0,0.0,83,0.00,,,0.00,WUHU216HW,2013-09-17 10:02:00,
2013-09-17 05:07:00,48.8,44.1,30.18,North,0,0.0,0.0,84,0.00,,,0.00,WUHU216HW,2013-09-17 10:07:00,
2013-09-17 05:12:00,49.0,44.0,30.18,North,0,0.0,0.0,83,0.00,,,0.00,WUHU216HW,2013-09-17 10:12:00,
2013-09-17 05:17:00,49.3,44.3,30.18,North,0,0.0,0.0,83,0.00,,,0.00,WUHU216HW,2013-09-17 10:17:00,
2013-09-17 05:22:00,49.3,44.0,30.18,North,0,0.0,0.0,82,0.00,,,0.00,WUHU216HW,2013-09-17 10:22:00,
2013-09-17 05:27:00,49.5,44.2,30.18,North,0,0.0,0.0,82,0.00,,,0.00,WUHU216HW,2013-09-17 10:27:00,
2013-09-17 05:32:00,49.7,44.4,30.18,North,0,0.0,0.0,82,0.00,,,0.00,WUHU216HW,2013-09-17 10:32:00,
2013-09-17 05:37:00,49.7,44.4,30.18,North,0,0.0,0.0,82,0.00,,,0.00,WUHU216HW,2013-09-17 10:37:00,
2013-09-17 05:42:00,49.9,44.6,30.17,North,0,0.0,0.0,82,0.00,,,0.00,WUHU216HW,2013-09-17 10:42:00,
2013-09-17 05:47:00,50.0,44.7,30.17,North,0,0.0,0.0,82,0.00,,,0.00,WUHU216HW,2013-09-17 10:47:00,
2013-09-17 05:52:00,50.0,44.7,30.17,North,0,0.0,0.0,82,0.00,,,0.00,WUHU216HW,2013-09-17 10:52:00,
2013-09-17 05:57:00,50.0,44.7,30.17,North,0,0.0,0.0,82,0.00,,,0.00,WUHU216HW,2013-09-17 10:57:00,
2013-09-17 06:02:00,50.2,44.9,30.16,North,0,0.0,0.0,82,0.00,,,0.00,WUHU216HW,2013-09-17 11:02:00,
2013-09-17 06:07:00,50.2,44.9,30.16,North,0,0.0,0.0,82,0.00,,,0.00,WUHU216HW,2013-09-17 11:07:00,
2013-09-17 06:12:00,50.2,44.9,30.16,North,0,0.0,0.0,82,0.00,,,0.00,WUHU216HW,2013-09-17 11:12:00,
2013-09-17 06:17:00,50.4,45.1,30.16,North,0,0.0,0.0,82,0.00,,,0.00,WUHU216HW,2013-09-17 11:17:00,
2013-09-17 06:22:00,50.4,45.1,30.16,North,0,0.0,0.0,82,0.00,,,0.00,WUHU216HW,2013-09-17 11:22:00,
2013-09-17 06:27:00,50.4,45.1,30.16,North,0,0.0,0.0,82,0.00,,,0.00,WUHU216HW,2013-09-17 11:27:00,
2013-09-17 06:32:00,50.6,45.3,30.16,North,0,0.0,0.0,82,0.00,,,0.00,WUHU216HW,2013-09-17 11:32:00,
2013-09-17 06:37:00,50.6,45.3,30.16,North,0,0.0,0.0,82,0.00,,,0.00,WUHU216HW,2013-09-17 11:37:00,
2013-09-17 06:42:00,50.6,45.3,30.16,North,0,0.0,0.0,82,0.00,,,0.00,WUHU216HW,2013-09-17 11:42:00,
2013-09-17 06:47:00,50.8,45.5,30.16,North,0,0.0,0.0,82,0.00,,,0.00,WUHU216HW,2013-09-17 11:47:00,
2013-09-17 06:52:00,50.8,45.1,30.15,North,0,0.0,0.0,81,0.00,,,0.00,WUHU216HW,2013-09-17 11:52:00,
2013-09-17 06:57:00,50.8,45.1,30.15,North,0,0.0,0.0,81,0.00,,,0.00,WUHU216HW,2013-09-17 11:57:00,
2013-09-17 07:02:00,50.8,45.1,30.15,North,0,0.0,0.0,81,0.00,,,0.00,WUHU216HW,2013-09-17 12:02:00,
2013-09-17 07:07:00,50.8,45.1,30.15,North,0,0.0,0.0,81,0.00,,,0.00,WUHU216HW,2013-09-17 12:07:00,
2013-09-17 07:12:00,50.8,45.1,30.15,North,0,0.0,0.0,81,0.00,,,0.00,WUHU216HW,2013-09-17 12:12:00,
2013-09-17 07:17:00,50.9,45.3,30.15,North,0,0.0,0.0,81,0.00,,,0.00,WUHU216HW,2013-09-17 12:17:00,
2013-09-17 07:22:00,50.9,45.0,30.15,North,0,0.0,0.0,80,0.00,,,0.00,WUHU216HW,2013-09-17 12:22:00,
2013-09-17 07:27:00,51.1,45.2,30.15,North,0,0.0,0.0,80,0.00,,,0.00,WUHU216HW,2013-09-17 12:27:00,
2013-09-17 07:32:00,51.1,45.2,30.15,North,0,0.0,0.0,80,0.00,,,0.00,WUHU216HW,2013-09-17 12:32:00,
2013-09-17 07:37:00,51.1,45.2,30.16,North,0,0.0,0.0,80,0.00,,,0.00,WUHU216HW,2013-09-17 12:37:00,
2013-09-17 07:42:00,51.3,45.4,30.16,North,0,0.0,0.0,80,0.00,,,0.00,WUHU216HW,2013-09-17 12:42:00,
2013-09-17 07:47:00,51.5,45.5,30.16,North,0,0.0,0.0,80,0.00,,,0.00,WUHU216HW,2013-09-17 12:47:00,
2013-09-17 07:52:00,51.5,45.5,30.16,North,0,0.0,0.0,80,0.00,,,0.00,WUHU216HW,2013-09-17 12:52:00,
2013-09-17 07:57:00,51.5,45.5,30.15,North,0,0.0,0.0,80,0.00,,,0.00,WUHU216HW,2013-09-17 12:57:00,
2013-09-17 08:02:00,51.7,45.7,30.15,North,0,0.0,0.0,80,0.00,,,0.00,WUHU216HW,2013-09-17 13:02:00,
2013-09-17 08:07:00,51.8,45.5,30.15,North,0,0.0,0.0,79,0.00,,,0.00,WUHU216HW,2013-09-17 13:07:00,
2013-09-17 08:12:00,52.0,45.7,30.15,North,0,0.0,0.0,79,0.00,,,0.00,WUHU216HW,2013-09-17 13:12:00,
2013-09-17 08:17:00,52.2,45.9,30.15,North,0,0.0,0.0,79,0.00,,,0.00,WUHU216HW,2013-09-17 13:17:00,
2013-09-17 08:22:00,52.2,45.9,30.15,North,0,0.0,0.0,79,0.00,,,0.00,WUHU216HW,2013-09-17 13:22:00,
2013-09-17 08:27:00,52.4,46.1,30.14,North,0,0.0,0.0,79,0.00,,,0.00,WUHU216HW,2013-09-17 13:27:00,
2013-09-17 08:32:00,52.6,46.3,30.15,North,0,0.0,0.0,79,0.00,,,0.00,WUHU216HW,2013-09-17 13:32:00,
2013-09-17 08:37:00,52.7,46.4,30.14,North,0,0.0,0.0,79,0.00,,,0.00,WUHU216HW,2013-09-17 13:37:00,
2013-09-17 08:42:00,52.9,46.6,30.15,North,0,0.0,0.0,79,0.00,,,0.00,WUHU216HW,2013-09-17 13:42:00,
2013-09-17 08:47:00,53.1,46.8,30.14,North,0,0.0,0.0,79,0.00,,,0.00,WUHU216HW,2013-09-17 13:47:00,
2013-09-17 08:52:00,53.3,47.0,30.14,North,0,0.0,0.0,79,0.00,,,0.00,WUHU216HW,2013-09-17 13:52:00,
2013-09-17 08:57:00,53.5,47.2,30.14,North,0,0.0,0.0,79,0.00,,,0.00,WUHU216HW,2013-09-17 13:57:00,
2013-09-17 09:02:00,53.6,47.0,30.14,North,0,0.0,0.0,78,0.00,,,0.00,WUHU216HW,2013-09-17 14:02:00,
2013-09-17 09:07:00,54.0,47.4,30.14,North,0,0.0,0.0,78,0.00,,,0.00,WUHU216HW,2013-09-17 14:07:00,
2013-09-17 09:12:00,54.0,47.4,30.14,North,0,0.0,0.0,78,0.00,,,0.00,WUHU216HW,2013-09-17 14:12:00,
2013-09-17 09:17:00,54.4,47.6,30.14,North,0,0.0,0.0,78,0.00,,,0.00,WUHU216HW,2013-09-17 14:17:00,
2013-09-17 09:22:00,54.7,48.0,30.14,North,0,0.0,0.0,78,0.00,,,0.00,WUHU216HW,2013-09-17 14:22:00,
2013-09-17 09:27:00,54.9,48.2,30.14,North,0,0.0,0.0,78,0.00,,,0.00,WUHU216HW,2013-09-17 14:27:00,
2013-09-17 09:32:00,55.3,48.8,30.14,North,0,0.0,0.0,79,0.00,,,0.00,WUHU216HW,2013-09-17 14:32:00,
2013-09-17 09:37:00,55.4,48.6,30.14,North,0,0.0,0.0,78,0.00,,,0.00,WUHU216HW,2013-09-17 14:37:00,
2013-09-17 09:42:00,55.8,49.0,30.14,North,0,0.0,0.0,78,0.00,,,0.00,WUHU216HW,2013-09-17 14:42:00,
2013-09-17 09:47:00,56.0,48.8,30.13,North,0,0.0,0.0,77,0.00,,,0.00,WUHU216HW,2013-09-17 14:47:00,
2013-09-17 09:52:00,56.3,49.5,30.13,North,0,0.0,0.0,78,0.00,,,0.00,WUHU216HW,2013-09-17 14:52:00,
2013-09-17 09:57:00,56.7,49.5,30.13,North,0,0.0,0.0,77,0.00,,,0.00,WUHU216HW,2013-09-17 14:57:00,
2013-09-17 10:02:00,57.1,49.9,30.13,North,0,0.0,0.0,77,0.00,,,0.00,WUHU216HW,2013-09-17 15:02:00,
2013-09-17 10:07:00,57.4,49.9,30.13,North,0,0.0,0.0,76,0.00,,,0.00,WUHU216HW,2013-09-17 15:07:00,
2013-09-17 10:12:00,57.8,50.2,30.13,North,0,0.0,0.0,76,0.00,,,0.00,WUHU216HW,2013-09-17 15:12:00,
2013-09-17 10:17:00,58.0,50.4,30.13,North,0,0.0,0.0,76,0.00,,,0.00,WUHU216HW,2013-09-17 15:17:00,
2013-09-17 10:22:00,58.1,50.2,30.13,North,0,0.0,0.0,75,0.00,,,0.00,WUHU216HW,2013-09-17 15:22:00,
2013-09-17 10:27:00,58.7,50.8,30.12,North,0,0.0,0.0,75,0.00,,,0.00,WUHU216HW,2013-09-17 15:27:00,
2013-09-17 10:32:00,59.0,50.8,30.12,North,0,0.0,0.0,74,0.00,,,0.00,WUHU216HW,2013-09-17 15:32:00,
2013-09-17 10:37:00,59.4,50.8,30.12,North,0,0.0,0.0,73,0.00,,,0.00,WUHU216HW,2013-09-17 15:37:00,
2013-09-17 10:42:00,59.6,50.9,30.12,North,0,0.0,0.0,73,0.00,,,0.00,WUHU216HW,2013-09-17 15:42:00,
2013-09-17 10:47:00,60.1,51.5,30.11,North,0,0.0,0.0,73,0.00,,,0.00,WUHU216HW,2013-09-17 15:47:00,
2013-09-17 10:52:00,60.7,51.7,30.11,North,0,0.0,0.0,72,0.00,,,0.00,WUHU216HW,2013-09-17 15:52:00,
2013-09-17 10:57:00,60.8,51.8,30.11,North,0,0.0,0.0,72,0.00,,,0.00,WUHU216HW,2013-09-17 15:57:00,
2013-09-17 11:02:00,61.2,51.9,30.11,North,0,0.0,0.0,71,0.00,,,0.00,WUHU216HW,2013-09-17 16:02:00,
2013-09-17 11:07:00,61.7,52.3,30.10,North,0,0.0,0.0,71,0.00,,,0.00,WUHU216HW,2013-09-17 16:07:00,
2013-09-17 11:12:00,62.5,52.9,30.10,North,0,0.0,0.0,71,0.00,,,0.00,WUHU216HW,2013-09-17 16:12:00,
2013-09-17 11:17:00,63.0,53.1,30.10,North,0,0.0,0.0,70,0.00,,,0.00,WUHU216HW,2013-09-17 16:17:00,
2013-09-17 11:22:00,63.9,53.6,30.10,North,0,0.0,0.0,69,0.00,,,0.00,WUHU216HW,2013-09-17 16:22:00,
2013-09-17 11:27:00,64.6,53.4,30.10,North,0,0.0,0.0,67,0.00,,,0.00,WUHU216HW,2013-09-17 16:27:00,
2013-09-17 11:32:00,65.2,53.9,30.10,North,0,0.0,0.0,67,0.00,,,0.00,WUHU216HW,2013-09-17 16:32:00,
2013-09-17 11:37:00,66.1,54.4,30.10,North,0,0.0,0.0,66,0.00,,,0.00,WUHU216HW,2013-09-17 16:37:00,
2013-09-17 11:42:00,66.6,53.7,30.09,North,0,0.0,0.0,63,0.00,,,0.00,WUHU216HW,2013-09-17 16:42:00,
2013-09-17 11:47:00,66.1,53.1,30.09,North,0,0.0,0.0,63,0.00,,,0.00,WUHU216HW,2013-09-17 16:47:00,
2013-09-17 11:52:00,65.9,53.4,30.09,North,0,0.0,0.0,64,0.00,,,0.00,WUHU216HW,2013-09-17 16:52:00,
2013-09-17 11:57:00,65.9,53.4,30.08,North,0,0.0,0.0,64,0.00,,,0.00,WUHU216HW,2013-09-17 16:57:00,
2013-09-17 12:02:00,66.6,54.0,30.08,North,0,0.0,0.0,64,0.00,,,0.00,WUHU216HW,2013-09-17 17:02:00,
2013-09-17 12:07:00,67.5,54.9,30.08,North,0,0.0,0.0,64,0.00,,,0.00,WUHU216HW,2013-09-17 17:07:00,
2013-09-17 12:12:00,68.2,55.1,30.08,North,0,0.0,0.0,63,0.00,,,0.00,WUHU216HW,2013-09-17 17:12:00,
2013-09-17 12:17:00,68.4,54.5,30.08,North,0,0.0,0.0,61,0.00,,,0.00,WUHU216HW,2013-09-17 17:17:00,
2013-09-17 12:22:00,68.4,54.0,30.08,North,0,0.0,0.0,60,0.00,,,0.00,WUHU216HW,2013-09-17 17:22:00,
2013-09-17 12:27:00,68.4,54.5,30.07,North,0,0.0,0.0,61,0.00,,,0.00,WUHU216HW,2013-09-17 17:27:00,
2013-09-17 12:32:00,68.2,54.3,30.08,North,0,0.0,0.0,61,0.00,,,0.00,WUHU216HW,2013-09-17 17:32:00,
2013-09-17 12:37:00,68.0,54.1,30.08,North,0,0.0,0.0,61,0.00,,,0.00,WUHU216HW,2013-09-17 17:37:00,
2013-09-17 12:42:00,68.0,54.1,30.07,North,0,0.0,0.0,61,0.00,,,0.00,WUHU216HW,2013-09-17 17:42:00,
2013-09-17 12:47:00,68.0,54.1,30.07,North,0,0.0,0.0,61,0.00,,,0.00,WUHU216HW,2013-09-17 17:47:00,
2013-09-17 12:53:00,67.9,53.9,30.07,North,0,0.0,0.0,61,0.00,,,0.00,WUHU216HW,2013-09-17 17:53:00,
2013-09-17 12:58:00,68.2,54.7,30.07,North,0,0.0,0.0,62,0.00,,,0.00,WUHU216HW,2013-09-17 17:58:00,
2013-09-17 13:03:00,68.4,54.5,30.07,North,0,0.0,0.0,61,0.00,,,0.00,WUHU216HW,2013-09-17 18:03:00,
2013-09-17 13:08:00,68.6,55.0,30.06,North,0,0.0,0.0,62,0.00,,,0.00,WUHU216HW,2013-09-17 18:08:00,
2013-09-17 13:13:00,68.4,54.5,30.06,North,0,0.0,0.0,61,0.00,,,0.00,WUHU216HW,2013-09-17 18:13:00,
2013-09-17 13:18:00,68.2,54.7,30.06,North,0,0.0,0.0,62,0.00,,,0.00,WUHU216HW,2013-09-17 18:18:00,
2013-09-17 13:23:00,68.0,54.6,30.05,North,0,0.0,0.0,62,0.00,,,0.00,WUHU216HW,2013-09-17 18:23:00,
2013-09-17 13:28:00,68.0,54.6,30.05,North,0,0.0,0.0,62,0.00,,,0.00,WUHU216HW,2013-09-17 18:28:00,
2013-09-17 13:33:00,68.0,54.9,30.05,North,0,0.0,0.0,63,0.00,,,0.00,WUHU216HW,2013-09-17 18:33:00,
2013-09-17 13:38:00,68.6,55.4,30.05,North,0,0.0,0.0,63,0.00,,,0.00,WUHU216HW,2013-09-17 18:38:00,
2013-09-17 13:43:00,68.8,54.8,30.05,North,0,0.0,0.0,61,0.00,,,0.00,WUHU216HW,2013-09-17 18:43:00,
2013-09-17 13:48:00,68.4,54.9,30.05,North,0,0.0,0.0,62,0.00,,,0.00,WUHU216HW,2013-09-17 18:48:00,
2013-09-17 13:53:00,68.2,55.1,30.05,North,0,0.0,0.0,63,0.00,,,0.00,WUHU216HW,2013-09-17 18:53:00,
2013-09-17 13:58:00,68.0,54.9,30.05,North,0,0.0,0.0,63,0.00,,,0.00,WUHU216HW,2013-09-17 18:58:00,
2013-09-17 14:03:00,68.0,54.9,30.04,North,0,0.0,0.0,63,0.00,,,0.00,WUHU216HW,2013-09-17 19:03:00,
2013-09-17 14:08:00,68.0,54.9,30.04,North,0,0.0,0.0,63,0.00,,,0.00,WUHU216HW,2013-09-17 19:08:00,
2013-09-17 14:13:00,68.0,54.6,30.04,North,0,0.0,0.0,62,0.00,,,0.00,WUHU216HW,2013-09-17 19:13:00,
2013-09-17 14:18:00,67.7,54.6,30.04,North,0,0.0,0.0,63,0.00,,,0.00,WUHU216HW,2013-09-17 19:18:00,
2013-09-17 14:23:00,67.3,54.3,30.03,North,0,0.0,0.0,63,0.00,,,0.00,WUHU216HW,2013-09-17 19:23:00,
2013-09-17 14:28:00,67.3,54.3,30.03,North,0,0.0,0.0,63,0.00,,,0.00,WUHU216HW,2013-09-17 19:28:00,
2013-09-17 14:33:00,67.1,54.6,30.03,North,0,0.0,0.0,64,0.00,,,0.00,WUHU216HW,2013-09-17 19:33:00,
2013-09-17 14:38:00,67.1,54.6,30.03,North,0,0.0,0.0,64,0.00,,,0.00,WUHU216HW,2013-09-17 19:38:00,
2013-09-17 14:43:00,67.3,55.1,30.03,North,0,0.0,0.0,65,0.00,,,0.00,WUHU216HW,2013-09-17 19:43:00,
2013-09-17 14:48:00,67.0,54.8,30.02,North,0,0.0,0.0,65,0.00,,,0.00,WUHU216HW,2013-09-17 19:48:00,
2013-09-17 14:53:00,66.8,54.6,30.02,North,0,0.0,0.0,65,0.00,,,0.00,WUHU216HW,2013-09-17 19:53:00,
2013-09-17 14:58:00,66.6,54.5,30.02,North,0,0.0,0.0,65,0.00,,,0.00,WUHU216HW,2013-09-17 19:58:00,
2013-09-17 15:03:00,66.6,54.5,30.02,North,0,0.0,0.0,65,0.00,,,0.00,WUHU216HW,2013-09-17 20:03:00,
2013-09-17 15:08:00,66.6,54.5,30.02,North,0,0.0,0.0,65,0.00,,,0.00,WUHU216HW,2013-09-17 20:08:00,
2013-09-17 15:13:00,66.6,54.5,30.01,North,0,0.0,0.0,65,0.00,,,0.00,WUHU216HW,2013-09-17 20:13:00,
2013-09-17 15:18:00,66.6,54.5,30.01,North,0,0.0,0.0,65,0.00,,,0.00,WUHU216HW,2013-09-17 20:18:00,
2013-09-17 15:23:00,66.4,54.3,30.01,North,0,0.0,0.0,65,0.00,,,0.00,WUHU216HW,2013-09-17 20:23:00,
2013-09-17 15:28:00,66.4,54.3,30.01,North,0,0.0,0.0,65,0.00,,,0.00,WUHU216HW,2013-09-17 20:28:00,
2013-09-17 15:33:00,66.2,54.1,30.00,North,0,0.0,0.0,65,0.00,,,0.00,WUHU216HW,2013-09-17 20:33:00,
2013-09-17 15:38:00,66.2,54.1,30.00,North,0,0.0,0.0,65,0.00,,,0.00,WUHU216HW,2013-09-17 20:38:00,
2013-09-17 15:43:00,66.2,54.6,30.00,North,0,0.0,0.0,66,0.00,,,0.00,WUHU216HW,2013-09-17 20:43:00,
2013-09-17 15:48:00,66.1,53.9,30.00,North,0,0.0,0.0,65,0.00,,,0.00,WUHU216HW,2013-09-17 20:48:00,
2013-09-17 15:53:00,65.9,54.2,30.00,North,0,0.0,0.0,66,0.00,,,0.00,WUHU216HW,2013-09-17 20:53:00,
2013-09-17 15:58:00,65.9,54.2,30.00,North,0,0.0,0.0,66,0.00,,,0.00,WUHU216HW,2013-09-17 20:58:00,
2013-09-17 16:03:00,65.7,54.0,30.00,North,0,0.0,0.0,66,0.00,,,0.00,WUHU216HW,2013-09-17 21:03:00,
2013-09-17 16:08:00,65.7,54.0,29.99,North,0,0.0,0.0,66,0.00,,,0.00,WUHU216HW,2013-09-17 21:08:00,
2013-09-17 16:13:00,65.7,54.0,29.99,North,0,0.0,0.0,66,0.00,,,0.00,WUHU216HW,2013-09-17 21:13:00,
2013-09-17 16:18:00,65.5,53.8,29.99,North,0,0.0,0.0,66,0.00,,,0.00,WUHU216HW,2013-09-17 21:18:00,
2013-09-17 16:23:00,65.3,53.6,29.99,North,0,0.0,0.0,66,0.00,,,0.00,WUHU216HW,2013-09-17 21:23:00,
2013-09-17 16:28:00,65.2,53.5,29.99,North,0,0.0,0.0,66,0.00,,,0.00,WUHU216HW,2013-09-17 21:28:00,
2013-09-17 16:33:00,65.2,53.9,29.98,North,0,0.0,0.0,67,0.00,,,0.00,WUHU216HW,2013-09-17 21:33:00,
2013-09-17 16:38:00,65.2,53.5,29.98,North,0,0.0,0.0,66,0.00,,,0.00,WUHU216HW,2013-09-17 21:38:00,
2013-09-17 16:43:00,65.0,53.3,29.98,North,0,0.0,0.0,66,0.00,,,0.00,WUHU216HW,2013-09-17 21:43:00,
2013-09-17 16:48:00,64.8,53.2,29.98,North,0,0.0,0.0,66,0.00,,,0.00,WUHU216HW,2013-09-17 21:48:00,
2013-09-17 16:53:00,64.6,53.0,29.98,North,0,0.0,0.0,66,0.00,,,0.00,WUHU216HW,2013-09-17 21:53:00,
2013-09-17 16:58:00,64.6,53.0,29.98,North,0,0.0,0.0,66,0.00,,,0.00,WUHU216HW,2013-09-17 21:58:00,
2013-09-17 17:03:00,64.6,53.0,29.98,North,0,0.0,0.0,66,0.00,,,0.00,WUHU216HW,2013-09-17 22:03:00,
2013-09-17 17:08:00,64.6,53.0,29.97,North,0,0.0,0.0,66,0.00,,,0.00,WUHU216HW,2013-09-17 22:08:00,
2013-09-17 17:13:00,64.6,53.0,29.97,North,0,0.0,0.0,66,0.00,,,0.00,WUHU216HW,2013-09-17 22:13:00,
2013-09-17 17:18:00,64.4,52.8,29.97,North,0,0.0,0.0,66,0.00,,,0.00,WUHU216HW,2013-09-17 22:18:00,
2013-09-17 17:23:00,64.4,52.8,29.97,North,0,0.0,0.0,66,0.00,,,0.00,WUHU216HW,2013-09-17 22:23:00,
2013-09-17 17:28:00,64.3,52.7,29.97,North,0,0.0,0.0,66,0.00,,,0.00,WUHU216HW,2013-09-17 22:28:00,
2013-09-17 17:33:00,64.3,52.7,29.97,North,0,0.0,0.0,66,0.00,,,0.00,WUHU216HW,2013-09-17 22:33:00,
2013-09-17 17:38:00,64.1,52.9,29.97,North,0,0.0,0.0,67,0.00,,,0.00,WUHU216HW,2013-09-17 22:38:00,
2013-09-17 17:43:00,63.9,52.8,29.97,North,0,0.0,0.0,67,0.00,,,0.00,WUHU216HW,2013-09-17 22:43:00,
2013-09-17 17:48:00,63.7,53.0,29.97,North,0,0.0,0.0,68,0.00,,,0.00,WUHU216HW,2013-09-17 22:48:00,
2013-09-17 17:53:00,63.5,53.2,29.97,North,0,0.0,0.0,69,0.00,,,0.00,WUHU216HW,2013-09-17 22:53:00,
2013-09-17 17:58:00,63.4,53.5,29.97,North,0,0.0,0.0,70,0.00,,,0.00,WUHU216HW,2013-09-17 22:58:00,
2013-09-17 18:03:00,63.0,53.5,29.97,North,0,0.0,0.0,71,0.00,,,0.00,WUHU216HW,2013-09-17 23:03:00,
2013-09-17 18:08:00,62.6,53.1,29.97,North,0,0.0,0.0,71,0.00,,,0.00,WUHU216HW,2013-09-17 23:08:00,
2013-09-17 18:13:00,62.3,53.1,29.97,North,0,0.0,0.0,72,0.00,,,0.00,WUHU216HW,2013-09-17 23:13:00,
2013-09-17 18:18:00,62.1,53.0,29.97,North,0,0.0,0.0,72,0.00,,,0.00,WUHU216HW,2013-09-17 23:18:00,
2013-09-17 18:23:00,61.7,53.0,29.97,North,0,0.0,0.0,73,0.00,,,0.00,WUHU216HW,2013-09-17 23:23:00,
2013-09-17 18:28:00,61.6,53.6,29.97,North,0,0.0,0.0,75,0.00,,,0.00,WUHU216HW,2013-09-17 23:28:00,
2013-09-17 18:33:00,61.4,53.7,29.97,North,0,0.0,0.0,76,0.00,,,0.00,WUHU216HW,2013-09-17 23:33:00,
2013-09-17 18:38:00,61.2,53.7,29.97,North,0,0.0,0.0,76,0.00,,,0.00,WUHU216HW,2013-09-17 23:38:00,
2013-09-17 18:43:00,61.0,53.5,29.97,North,0,0.0,0.0,76,0.00,,,0.00,WUHU216HW,2013-09-17 23:43:00,
2013-09-17 18:48:00,60.8,53.6,29.97,North,0,0.0,0.0,77,0.00,,,0.00,WUHU216HW,2013-09-17 23:48:00,
2013-09-17 18:53:00,60.5,53.3,29.96,North,0,0.0,0.0,77,0.00,,,0.00,WUHU216HW,2013-09-17 23:53:00,
2013-09-17 18:58:00,60.1,53.3,29.96,North,0,0.0,0.0,78,0.00,,,0.00,WUHU216HW,2013-09-17 23:58:00,
2013-09-17 19:03:00,59.9,53.1,29.96,North,0,0.0,0.0,78,0.00,,,0.00,WUHU216HW,2013-09-18 00:03:00,
2013-09-17 19:08:00,59.8,53.3,29.96,North,0,0.0,0.0,79,0.00,,,0.00,WUHU216HW,2013-09-18 00:08:00,
2013-09-17 19:13:00,59.4,52.9,29.96,North,0,0.0,0.0,79,0.00,,,0.00,WUHU216HW,2013-09-18 00:13:00,
2013-09-17 19:18:00,59.4,53.7,29.96,North,0,0.0,0.0,81,0.00,,,0.00,WUHU216HW,2013-09-18 00:18:00,
2013-09-17 19:23:00,59.4,53.3,29.96,North,0,0.0,0.0,80,0.00,,,0.00,WUHU216HW,2013-09-18 00:23:00,
2013-09-17 19:28:00,59.2,53.5,29.96,North,0,0.0,0.0,81,0.00,,,0.00,WUHU216HW,2013-09-18 00:28:00,
2013-09-17 19:33:00,59.2,53.5,29.95,North,0,0.0,0.0,81,0.00,,,0.00,WUHU216HW,2013-09-18 00:33:00,
2013-09-17 19:38:00,59.2,53.7,29.95,North,0,0.0,0.0,82,0.00,,,0.00,WUHU216HW,2013-09-18 00:38:00,
2013-09-17 19:43:00,59.0,53.6,29.95,North,0,0.0,0.0,82,0.00,,,0.00,WUHU216HW,2013-09-18 00:43:00,
2013-09-17 19:48:00,59.0,53.9,29.95,North,0,0.0,0.0,83,0.00,,,0.00,WUHU216HW,2013-09-18 00:48:00,
2013-09-17 19:53:00,59.0,53.9,29.95,North,0,0.0,0.0,83,0.00,,,0.00,WUHU216HW,2013-09-18 00:53:00,
2013-09-17 19:58:00,58.9,53.7,29.95,North,0,0.0,0.0,83,0.00,,,0.00,WUHU216HW,2013-09-18 00:58:00,
2013-09-17 20:03:00,58.9,53.7,29.95,North,0,0.0,0.0,83,0.00,,,0.00,WUHU216HW,2013-09-18 01:03:00,
2013-09-17 20:08:00,58.9,53.7,29.95,North,0,0.0,0.0,83,0.00,,,0.00,WUHU216HW,2013-09-18 01:08:00,
2013-09-17 20:13:00,58.9,53.7,29.95,North,0,0.0,0.0,83,0.00,,,0.00,WUHU216HW,2013-09-18 01:13:00,
2013-09-17 20:18:00,58.9,53.7,29.95,North,0,0.0,0.0,83,0.00,,,0.00,WUHU216HW,2013-09-18 01:18:00,
2013-09-17 20:23:00,58.7,54.2,29.95,North,0,0.0,0.0,85,0.00,,,0.00,WUHU216HW,2013-09-18 01:23:00,
2013-09-17 20:28:00,58.7,54.2,29.95,North,0,0.0,0.0,85,0.00,,,0.00,WUHU216HW,2013-09-18 01:28:00,
2013-09-17 20:33:00,58.7,54.6,29.95,North,0,0.0,0.0,86,0.00,,,0.00,WUHU216HW,2013-09-18 01:33:00,
2013-09-17 20:38:00,58.5,54.4,29.95,North,0,0.0,0.0,86,0.00,,,0.00,WUHU216HW,2013-09-18 01:38:00,
2013-09-17 20:43:00,58.5,54.6,29.95,North,0,0.0,0.0,87,0.00,,,0.00,WUHU216HW,2013-09-18 01:43:00,
2013-09-17 20:48:00,58.5,54.4,29.95,North,0,0.0,0.0,86,0.00,,,0.00,WUHU216HW,2013-09-18 01:48:00,
2013-09-17 20:53:00,58.5,54.6,29.95,North,0,0.0,0.0,87,0.00,,,0.00,WUHU216HW,2013-09-18 01:53:00,
2013-09-17 20:58:00,58.5,54.4,29.95,North,0,0.0,0.0,86,0.00,,,0.00,WUHU216HW,2013-09-18 01:58:00,
2013-09-17 21:03:00,58.5,54.4,29.95,North,0,0.0,0.0,86,0.00,,,0.00,WUHU216HW,2013-09-18 02:03:00,
2013-09-17 21:08:00,58.5,54.4,29.95,North,0,0.0,0.0,86,0.00,,,0.00,WUHU216HW,2013-09-18 02:08:00,
2013-09-17 21:13:00,58.3,54.5,29.95,North,0,0.0,0.0,87,0.00,,,0.00,WUHU216HW,2013-09-18 02:13:00,
2013-09-17 21:18:00,58.3,54.5,29.94,North,0,0.0,0.0,87,0.00,,,0.00,WUHU216HW,2013-09-18 02:18:00,
2013-09-17 21:23:00,58.3,54.5,29.94,North,0,0.0,0.0,87,0.00,,,0.00,WUHU216HW,2013-09-18 02:23:00,
2013-09-17 21:28:00,58.3,54.5,29.94,North,0,0.0,0.0,87,0.00,,,0.00,WUHU216HW,2013-09-18 02:28:00,
2013-09-17 21:33:00,58.3,54.5,29.94,North,0,0.0,0.0,87,0.01,,,0.02,WUHU216HW,2013-09-18 02:33:00,
2013-09-17 21:38:00,58.1,54.6,29.94,North,0,0.0,0.0,88,0.01,,,0.02,WUHU216HW,2013-09-18 02:38:00,
2013-09-17 21:43:00,58.1,54.3,29.93,North,0,0.0,0.0,87,0.01,,,0.02,WUHU216HW,2013-09-18 02:43:00,
2013-09-17 21:48:00,58.1,54.3,29.93,North,0,0.0,0.0,87,0.01,,,0.02,WUHU216HW,2013-09-18 02:48:00,
2013-09-17 21:53:00,58.1,54.6,29.93,North,0,0.0,0.0,88,0.01,,,0.02,WUHU216HW,2013-09-18 02:53:00,
2013-09-17 21:58:00,58.1,54.6,29.93,North,0,0.0,0.0,88,0.01,,,0.02,WUHU216HW,2013-09-18 02:58:00,
2013-09-17 22:03:00,58.1,54.9,29.93,North,0,0.0,0.0,89,0.01,,,0.02,WUHU216HW,2013-09-18 03:03:00,
2013-09-17 22:08:00,58.1,54.6,29.93,North,0,0.0,0.0,88,0.01,,,0.02,WUHU216HW,2013-09-18 03:08:00,
2013-09-17 22:13:00,58.1,54.6,29.93,North,0,0.0,0.0,88,0.01,,,0.02,WUHU216HW,2013-09-18 03:13:00,
2013-09-17 22:18:00,58.1,54.6,29.93,North,0,0.0,0.0,88,0.01,,,0.02,WUHU216HW,2013-09-18 03:18:00,
2013-09-17 22:23:00,58.1,54.9,29.93,North,0,0.0,0.0,89,0.01,,,0.02,WUHU216HW,2013-09-18 03:23:00,
2013-09-17 22:28:00,58.1,54.9,29.93,North,0,0.0,0.0,89,0.00,,,0.02,WUHU216HW,2013-09-18 03:28:00,
2013-09-17 22:33:00,58.1,54.9,29.93,North,0,0.0,0.0,89,0.00,,,0.02,WUHU216HW,2013-09-18 03:33:00,
2013-09-17 22:38:00,58.1,54.9,29.93,North,0,0.0,0.0,89,0.00,,,0.02,WUHU216HW,2013-09-18 03:38:00,
2013-09-17 22:43:00,58.1,54.9,29.93,North,0,0.0,0.0,89,0.01,,,0.02,WUHU216HW,2013-09-18 03:43:00,
2013-09-17 22:48:00,58.1,54.9,29.93,North,0,0.0,0.0,89,0.01,,,0.02,WUHU216HW,2013-09-18 03:48:00,
2013-09-17 22:53:00,58.1,54.9,29.92,North,0,0.0,0.0,89,0.01,,,0.02,WUHU216HW,2013-09-18 03:53:00,
2013-09-17 22:58:00,58.1,54.9,29.92,North,0,0.0,0.0,89,0.01,,,0.02,WUHU216HW,2013-09-18 03:58:00,
2013-09-17 23:01:00,58.3,55.4,29.92,North,0,0.0,0.0,90,0.01,,,0.02,WUHU216HW,2013-09-18 04:01:00,
2013-09-17 23:06:00,58.3,55.4,29.92,North,0,0.0,0.0,90,0.01,,,0.02,WUHU216HW,2013-09-18 04:06:00,
2013-09-17 23:11:00,58.3,55.4,29.92,North,0,0.0,0.0,90,0.01,,,0.02,WUHU216HW,2013-09-18 04:11:00,
2013-09-17 23:16:00,58.3,55.4,29.92,North,0,0.0,0.0,90,0.01,,,0.02,WUHU216HW,2013-09-18 04:16:00,
2013-09-17 23:21:00,58.3,55.4,29.92,North,0,0.0,0.0,90,0.01,,,0.02,WUHU216HW,2013-09-18 04:21:00,
2013-09-17 23:26:00,58.3,55.7,29.92,North,0,0.0,0.0,91,0.01,,,0.02,WUHU216HW,2013-09-18 04:26:00,
2013-09-17 23:31:00,58.3,55.7,29.92,North,0,0.0,0.0,91,0.01,,,0.02,WUHU216HW,2013-09-18 04:31:00,
2013-09-17 23:36:00,58.5,55.6,29.92,North,0,0.0,0.0,90,0.01,,,0.02,WUHU216HW,2013-09-18 04:36:00,
2013-09-17 23:41:00,58.5,55.6,29.92,North,0,0.0,0.0,90,0.00,,,0.02,WUHU216HW,2013-09-18 04:41:00,
2013-09-17 23:46:00,58.5,55.6,29.91,North,0,0.0,0.0,90,0.00,,,0.02,WUHU216HW,2013-09-18 04:46:00,
2013-09-17 23:51:00,58.7,55.8,29.91,North,0,0.0,0.0,90,0.00,,,0.02,WUHU216HW,2013-09-18 04:51:00,
2013-09-17 23:56:00,58.7,55.8,29.91,North,0,0.0,0.0,90,0.00,,,0.02,WUHU216HW,2013-09-18 04:56:00,